Date String (YYYY-MM-DD hh:mm:ss) UTC,Instrument flags,Ambient pressure (hPa),Sample flow (lpm),Bypass flow (lpm),Sample temperature (°C),Ambient temperature (°C),ASC tube jacket temperature (°C),LED temperature (°C),Box temperature (°C),Sample RH (%),Span deviation,Mass concentration (μg/m³),Mass concentration (μg/m³),Mass concentration (μg/m³)
DateTimeUTC,F1_M11,P_M11,Q1_M11,Q2_M11,T1_M11,T2_M11,T3_M11,T4_M11,T5_M11,U1_M11,ZSPAN_M11,X0_M11,X2_M11,X1_M11
2022-03-21 13:00:00,,0823.7,5.00,0.00,22.8,21.8,00.0,32.0,24.4,15.4,0000.0,0009.92,0001.49,0000.59
2022-03-21 13:01:00,,0823.6,5.00,0.00,22.8,21.8,00.0,32.0,24.4,15.4,0000.0,0010.19,0001.50,0000.60
2022-03-21 13:02:00,,0823.6,5.01,0.00,22.7,21.7,00.0,31.9,24.4,15.5,0000.0,0010.72,0001.56,0000.61
2022-03-21 13:03:00,,0823.7,5.00,0.00,22.7,21.7,00.0,31.9,24.3,15.5,0000.0,0011.11,0001.57,0000.61
2022-03-21 13:04:00,,0823.7,5.00,0.00,22.7,21.8,00.0,31.9,24.3,15.6,0000.0,0010.74,0001.54,0000.61
2022-03-21 13:05:00,,0823.7,5.00,0.00,22.7,21.8,00.0,31.9,24.3,15.6,0000.0,0011.08,0001.52,0000.60
2022-03-21 13:06:00,,0823.6,5.01,0.00,22.7,21.8,00.0,31.9,24.3,15.5,0000.0,0011.46,0001.49,0000.61
2022-03-21 13:07:00,,0823.6,5.00,0.00,22.7,21.8,00.0,31.8,24.3,15.5,0000.0,0010.30,0001.48,0000.60
2022-03-21 13:08:00,,0823.6,5.00,0.00,22.6,21.8,00.0,31.8,24.3,15.6,0000.0,0009.56,0001.54,0000.60
2022-03-21 13:09:00,,0823.7,4.99,0.00,22.6,21.8,00.0,31.8,24.3,15.7,0000.0,0009.32,0001.48,0000.60
2022-03-21 13:10:00,,0823.6,5.00,0.00,22.6,21.8,00.0,31.8,24.3,15.6,0000.0,0009.39,0001.46,0000.60
2022-03-21 13:11:00,,0823.7,5.00,0.00,22.6,21.7,00.0,31.8,24.2,15.7,0000.0,0010.17,0001.45,0000.59
2022-03-21 13:12:00,,0823.7,5.00,0.00,22.6,21.6,00.0,31.8,24.2,15.7,0000.0,0010.58,0001.47,0000.59
2022-03-21 13:13:00,,0823.7,5.01,0.00,22.5,21.5,00.0,31.7,24.1,15.7,0000.0,0010.31,0001.46,0000.59
2022-03-21 13:14:00,,0823.6,5.00,0.00,22.5,21.4,00.0,31.7,24.1,15.8,0000.0,0010.32,0001.44,0000.58
2022-03-21 13:15:00,,0823.6,5.00,0.00,22.4,21.3,00.0,31.7,24.0,15.8,0000.0,0010.06,0001.54,0000.58
2022-03-21 13:16:00,,0823.7,4.99,0.00,22.4,21.3,00.0,31.6,24.0,15.8,0000.0,0009.36,0001.55,0000.59
2022-03-21 13:17:00,,0823.6,4.99,0.00,22.3,21.1,00.0,31.6,23.9,15.8,0000.0,0008.52,0001.55,0000.59
2022-03-21 13:18:00,,0823.7,5.00,0.00,22.3,21.2,00.0,31.6,23.9,15.8,0000.0,0009.51,0001.53,0000.60
2022-03-21 13:19:00,,0823.7,5.00,0.00,22.3,21.2,00.0,31.6,23.9,15.9,0000.0,0009.72,0001.50,0000.61
2022-03-21 13:20:00,,0823.7,5.00,0.00,22.2,21.3,00.0,31.5,23.9,15.8,0000.0,0009.67,0001.54,0000.63
2022-03-21 13:21:00,,0823.7,5.00,0.00,22.3,21.3,00.0,31.5,23.9,15.7,0000.0,0009.48,0001.55,0000.64
2022-03-21 13:22:00,,0823.7,5.00,0.00,22.2,21.3,00.0,31.5,23.9,15.8,0000.0,0008.75,0001.57,0000.64
2022-03-21 13:23:00,,0823.7,4.99,0.00,22.2,21.3,00.0,31.5,23.9,15.8,0000.0,0008.04,0001.53,0000.65
2022-03-21 13:24:00,,0823.7,5.01,0.00,22.2,21.2,00.0,31.5,23.9,15.8,0000.0,0007.44,0001.50,0000.67
2022-03-21 13:25:00,,0823.7,4.99,0.00,22.2,21.2,00.0,31.4,23.8,15.9,0000.0,0007.33,0001.48,0000.68
2022-03-21 13:26:00,,0823.7,5.00,0.00,22.1,21.0,00.0,31.4,23.8,16.0,0000.0,0007.02,0001.39,0000.68
2022-03-21 13:27:00,,0823.7,5.01,0.00,22.1,20.9,00.0,31.4,23.7,16.0,0000.0,0006.92,0001.31,0000.69
2022-03-21 13:28:00,,0823.7,4.99,0.00,22.0,20.9,00.0,31.3,23.6,16.0,0000.0,0006.60,0001.31,0000.70
2022-03-21 13:29:00,,0823.8,4.99,0.00,22.0,20.9,00.0,31.3,23.6,16.1,0000.0,0004.74,0001.32,0000.70
2022-03-21 13:30:00,,0823.8,5.02,0.00,22.0,20.8,00.0,31.3,23.6,16.1,0000.0,0003.79,0001.31,0000.70
2022-03-21 13:31:00,,0823.8,4.99,0.00,21.9,20.8,00.0,31.3,23.6,16.2,0000.0,0003.79,0001.30,0000.70
2022-03-21 13:32:00,,0823.8,5.00,0.00,21.9,20.9,00.0,31.2,23.5,16.2,0000.0,0003.80,0001.29,0000.69
2022-03-21 13:33:00,,0823.8,5.00,0.00,21.9,20.9,00.0,31.2,23.5,16.3,0000.0,0003.83,0001.33,0000.70
2022-03-21 13:34:00,,0823.8,5.01,0.00,21.9,20.8,00.0,31.2,23.5,16.4,0000.0,0004.11,0001.39,0000.69
2022-03-21 13:35:00,,0823.8,5.00,0.00,21.9,20.9,00.0,31.1,23.5,16.5,0000.0,0005.52,0001.40,0000.68
2022-03-21 13:36:00,,0823.8,4.99,0.00,21.8,20.8,00.0,31.1,23.5,16.5,0000.0,0005.52,0001.45,0000.67
2022-03-21 13:37:00,,0823.8,5.00,0.00,21.8,20.7,00.0,31.1,23.4,16.6,0000.0,0006.63,0001.50,0000.67
2022-03-21 13:38:00,,0823.9,5.01,0.00,21.8,20.7,00.0,31.1,23.4,16.6,0000.0,0006.97,0001.52,0000.67
2022-03-21 13:39:00,,0823.9,4.99,0.00,21.8,20.6,00.0,31.0,23.3,16.4,0000.0,0006.86,0001.50,0000.67
2022-03-21 13:40:00,,0823.9,5.00,0.00,21.7,20.6,00.0,31.0,23.3,16.4,0000.0,0006.91,0001.52,0000.68
2022-03-21 13:41:00,,0824.0,5.01,0.00,21.7,20.6,00.0,31.0,23.3,16.5,0000.0,0007.59,0001.51,0000.68
2022-03-21 13:42:00,,0824.0,5.00,0.00,21.7,20.6,00.0,31.0,23.3,16.6,0000.0,0007.57,0001.52,0000.68
2022-03-21 13:43:00,,0824.1,5.00,0.00,21.7,20.6,00.0,30.9,23.3,16.6,0000.0,0007.51,0001.55,0000.69
2022-03-21 13:44:00,,0824.1,4.99,0.00,21.6,20.6,00.0,30.9,23.2,16.6,0000.0,0007.33,0001.45,0000.69
2022-03-21 13:45:00,,0824.1,4.99,0.00,21.6,20.4,00.0,30.9,23.2,16.6,0000.0,0007.02,0001.39,0000.69
2022-03-21 13:46:00,,0824.1,4.99,0.00,21.5,20.3,00.0,30.8,23.1,16.6,0000.0,0006.55,0001.35,0000.70
2022-03-21 13:47:00,,0824.1,5.01,0.00,21.5,20.4,00.0,30.8,23.1,16.6,0000.0,0005.58,0001.34,0000.71
2022-03-21 13:48:00,,0824.1,5.01,0.00,21.4,20.3,00.0,30.8,23.0,16.6,0000.0,0004.60,0001.29,0000.73
2022-03-21 13:49:00,,0824.1,4.99,0.00,21.4,20.2,00.0,30.7,23.0,16.7,0000.0,0004.05,0001.31,0000.74
2022-03-21 13:50:00,,0824.2,5.01,0.00,21.4,20.2,00.0,30.7,23.0,16.7,0000.0,0004.43,0001.42,0000.76
2022-03-21 13:51:00,,0824.2,5.00,0.00,21.3,20.3,00.0,30.7,22.9,16.8,0000.0,0004.66,0001.45,0000.77
2022-03-21 13:52:00,,0824.3,5.00,0.00,21.3,20.3,00.0,30.6,22.9,16.8,0000.0,0004.06,0001.46,0000.77
2022-03-21 13:53:00,,0824.3,5.00,0.00,21.3,20.2,00.0,30.6,22.9,16.7,0000.0,0003.92,0001.46,0000.80
2022-03-21 13:54:00,,0824.3,4.99,0.00,21.2,20.0,00.0,30.6,22.8,16.5,0000.0,0003.89,0001.46,0000.83
2022-03-21 13:55:00,,0824.3,5.00,0.00,21.2,20.0,00.0,30.5,22.7,16.5,0000.0,0004.16,0001.57,0000.86
2022-03-21 13:56:00,,0824.3,5.01,0.00,21.2,20.0,00.0,30.5,22.7,16.5,0000.0,0004.43,0001.63,0000.90
2022-03-21 13:57:00,,0824.3,5.01,0.00,21.1,20.0,00.0,30.5,22.7,16.6,0000.0,0004.29,0001.73,0000.94
2022-03-21 13:58:00,,0824.3,5.00,0.00,21.1,20.0,00.0,30.4,22.7,16.6,0000.0,0004.40,0001.80,0000.97
2022-03-21 13:59:00,,0824.3,5.00,0.00,21.1,20.0,00.0,30.4,22.7,16.6,0000.0,0004.66,0001.85,0001.00
